Location: Eurasberg
(48.3353°N, 11.0839°E)
Time: 18:24:50
(UTC+00:00)

Cosmos 2074 Rocket - Visible Passes

Search period start: 11 April 2026 00:00
Search period end: 21 April 2026 00:00
Orbit: 967 x 985 km, 82.9° (Epoch: 11 April)

Date Brightness Start Highest point End Pass type
(mag) Time Alt. Az. Time Alt. Az. Time Alt. Az.
11 Apr 7.1 04:00:03 10° NNE 04:03:33 15° ENE 04:07:02 10° E visible
11 Apr 4.5 19:17:30 10° SSW 19:23:39 65° WNW 19:29:55 10° N visible
11 Apr 6.9 21:07:46 10° W 21:10:26 13° NW 21:13:06 10° NNW visible
12 Apr 5.5 19:43:35 10° SW 19:49:22 39° WNW 19:55:11 10° N visible
13 Apr 6.3 20:10:19 10° WSW 20:15:14 24° WNW 20:20:12 10° NNW visible
14 Apr 7.3 03:31:34 10° NNE 03:34:27 13° NE 03:37:19 10° E visible
14 Apr 4.3 18:48:30 10° SSW 18:54:42 74° W 19:01:00 10° N visible
14 Apr 6.9 20:37:58 10° W 20:41:19 15° WNW 20:44:40 10° NNW visible
15 Apr 5.3 19:14:26 10° SW 19:20:21 44° WNW 19:26:21 10° N visible
16 Apr 6.2 19:40:59 10° WSW 19:46:11 27° WNW 19:51:26 10° N visible
17 Apr 7.5 03:03:18 10° NE 03:05:19 11° NE 03:07:20 10° ENE visible
17 Apr 6.9 20:08:21 10° W 20:12:13 17° WNW 20:16:06 10° NNW visible
18 Apr 7.1 03:27:06 10° NNE 03:31:30 19° ENE 03:35:52 10° ESE visible
18 Apr 5.1 18:45:20 10° SSW 18:51:22 50° WNW 18:57:29 10° N visible
19 Apr 6.1 19:11:43 10° SW 19:17:09 31° WNW 19:22:39 10° N visible
20 Apr 6.9 19:38:49 10° WSW 19:43:07 19° WNW 19:47:27 10° NNW visible
